Weather reports worldwide

Advertisment
Writtle, United Kingdom (99127): temperature & dewpoint: 17.04.2019 18:00:00 - 23.04.2019 18:00:00 (BST)Writtle, United Kingdom (99127): temperature -20cm: 17.04.2019 18:00:00 - 23.04.2019 18:00:00 (BST)Writtle, United Kingdom (99127): precipitation: 17.04.2019 18:00:00 - 23.04.2019 18:00:00 (BST)
Date & Time tt [°C] td [°C] tt -20cm [°C] rr [mm]
23.04.2019 18:00:00 - - - -
23.04.2019 17:00:00 16,2 6,5 - 0,0
23.04.2019 16:00:00 16,8 7,4 - 0,0
23.04.2019 15:00:00 17,0 8,4 - 0,0
23.04.2019 14:00:00 17,6 9,4 - 0,0
23.04.2019 13:00:00 17,1 9,1 - 0,0
23.04.2019 12:00:00 16,3 8,2 - 0,0
23.04.2019 11:00:00 16,3 8,2 - 0,0
23.04.2019 10:00:00 14,1 8,3 10,9 0,0
23.04.2019 09:00:00 12,5 7,9 - 0,0
23.04.2019 08:00:00 10,8 7,4 - 0,0
23.04.2019 07:00:00 8,7 6,9 - 0,0
23.04.2019 06:00:00 7,4 6,1 - 0,0
23.04.2019 05:00:00 7,5 5,7 - 0,0
23.04.2019 04:00:00 8,2 5,9 - 0,0
23.04.2019 03:00:00 8,5 6,1 - 0,0
23.04.2019 02:00:00 8,2 6,0 - 0,0
23.04.2019 01:00:00 8,1 6,1 - 0,0
23.04.2019 00:00:00 9,7 7,3 - 0,0
22.04.2019 23:00:00 11,7 8,3 - 0,0
22.04.2019 22:00:00 12,7 8,4 - 0,0
22.04.2019 21:00:00 14,3 8,0 - 0,0
22.04.2019 20:00:00 15,8 7,8 - 0,0
22.04.2019 19:00:00 17,1 7,5 - 0,0
22.04.2019 18:00:00 17,5 7,0 - 0,0
22.04.2019 17:00:00 19,0 7,0 - 0,0
22.04.2019 16:00:00 20,0 5,7 - 0,0
22.04.2019 15:00:00 20,0 6,0 - 0,0
22.04.2019 14:00:00 20,4 8,2 - 0,0
22.04.2019 13:00:00 20,2 7,4 - 0,0
22.04.2019 12:00:00 18,9 7,8 - 0,0
22.04.2019 11:00:00 17,9 7,0 - 0,0
22.04.2019 10:00:00 16,6 8,0 10,5 0,0
22.04.2019 09:00:00 12,5 8,1 - 0,0
22.04.2019 08:00:00 6,0 4,8 - 0,0
22.04.2019 07:00:00 2,9 2,5 - 0,2
22.04.2019 06:00:00 1,1 0,5 - 0,0
22.04.2019 05:00:00 1,2 0,5 - 0,0
22.04.2019 04:00:00 1,5 0,8 - 0,0
22.04.2019 03:00:00 1,5 0,7 - 0,0
22.04.2019 02:00:00 2,0 0,6 - 0,0
22.04.2019 01:00:00 2,9 0,6 - 0,0
22.04.2019 00:00:00 3,8 1,0 - 0,0
21.04.2019 23:00:00 6,0 1,3 - 0,0
21.04.2019 22:00:00 8,3 1,7 - 0,0
21.04.2019 21:00:00 11,8 2,3 - 0,0
21.04.2019 20:00:00 14,0 2,0 - 0,0
21.04.2019 19:00:00 16,3 1,9 - 0,0
21.04.2019 18:00:00 18,0 3,6 - 0,0
21.04.2019 17:00:00 19,1 2,9 - 0,0
21.04.2019 16:00:00 19,5 5,1 - 0,0
21.04.2019 15:00:00 19,7 5,2 - 0,0
21.04.2019 14:00:00 20,0 5,3 - 0,0
21.04.2019 13:00:00 19,4 7,0 - 0,0
21.04.2019 12:00:00 19,1 10,2 - 0,0
21.04.2019 11:00:00 17,8 7,9 - 0,0
21.04.2019 10:00:00 16,0 8,1 10,4 0,0
21.04.2019 09:00:00 12,3 7,3 - 0,0
21.04.2019 08:00:00 8,1 6,5 - 0,0
21.04.2019 07:00:00 3,6 3,2 - 0,0
21.04.2019 06:00:00 1,3 0,7 - 0,0
21.04.2019 05:00:00 1,7 1,0 - 0,0
21.04.2019 04:00:00 2,9 2,2 - 0,0
21.04.2019 03:00:00 2,8 1,8 - 0,0
21.04.2019 02:00:00 3,6 2,6 - 0,0
21.04.2019 01:00:00 4,9 3,1 - 0,0
21.04.2019 00:00:00 5,4 3,8 - 0,0
20.04.2019 23:00:00 8,1 5,3 - 0,0
20.04.2019 22:00:00 9,0 4,5 - 0,0
20.04.2019 21:00:00 12,1 5,1 - 0,0
20.04.2019 20:00:00 14,9 5,8 - 0,0
20.04.2019 19:00:00 17,8 6,8 - 0,0
20.04.2019 18:00:00 19,9 5,5 - 0,0
20.04.2019 17:00:00 21,3 6,3 - 0,0
20.04.2019 16:00:00 21,7 6,7 - 0,0
20.04.2019 15:00:00 22,2 7,3 - 0,0
20.04.2019 14:00:00 22,2 8,7 - 0,0
20.04.2019 13:00:00 21,2 8,9 - 0,0
20.04.2019 12:00:00 20,3 8,9 - 0,0
20.04.2019 11:00:00 18,6 10,3 - 0,0
20.04.2019 10:00:00 15,7 8,8 10,0 0,0
20.04.2019 09:00:00 12,5 8,5 - 0,0
20.04.2019 08:00:00 9,1 7,1 - 0,0
20.04.2019 07:00:00 5,2 4,9 - 0,0
20.04.2019 06:00:00 3,9 3,5 - 0,0
20.04.2019 05:00:00 2,7 2,0 - 0,0
20.04.2019 04:00:00 3,4 2,7 - 0,0
20.04.2019 03:00:00 3,7 2,5 - 0,0
20.04.2019 02:00:00 5,4 3,5 - 0,0
20.04.2019 01:00:00 7,0 4,6 - 0,0
20.04.2019 00:00:00 8,4 4,9 - 0,0
19.04.2019 23:00:00 9,9 5,5 - 0,0
19.04.2019 22:00:00 10,1 4,8 - 0,0
19.04.2019 21:00:00 12,8 5,3 - 0,0
19.04.2019 20:00:00 15,2 4,7 - 0,0
19.04.2019 19:00:00 18,7 5,0 - 0,0
19.04.2019 18:00:00 20,2 4,9 - 0,0
19.04.2019 17:00:00 20,5 5,5 - 0,0
19.04.2019 16:00:00 21,2 6,0 - 0,0
19.04.2019 15:00:00 21,2 6,4 - 0,0
19.04.2019 14:00:00 21,0 5,7 - 0,0
19.04.2019 13:00:00 20,4 6,1 - 0,0
19.04.2019 12:00:00 19,2 7,6 - 0,0
19.04.2019 11:00:00 17,2 8,4 - 0,0
19.04.2019 10:00:00 15,5 8,1 9,7 0,0
19.04.2019 09:00:00 13,5 7,5 - 0,0
19.04.2019 08:00:00 10,0 6,7 - 0,0
19.04.2019 07:00:00 6,4 5,8 - 0,0
19.04.2019 06:00:00 4,2 3,6 - 0,0
19.04.2019 05:00:00 5,2 4,4 - 0,0
19.04.2019 04:00:00 4,9 3,9 - 0,0
19.04.2019 03:00:00 4,9 3,4 - 0,0
19.04.2019 02:00:00 5,9 4,2 - 0,0
19.04.2019 01:00:00 6,5 4,1 - 0,0
19.04.2019 00:00:00 8,1 4,9 - 0,0
18.04.2019 23:00:00 9,0 4,9 - 0,0
18.04.2019 22:00:00 12,0 5,3 - 0,0
18.04.2019 21:00:00 13,2 5,1 - 0,0
18.04.2019 20:00:00 15,6 4,2 - 0,0
18.04.2019 19:00:00 16,7 5,4 - 0,0
18.04.2019 18:00:00 17,4 5,6 - 0,0
18.04.2019 17:00:00 17,3 5,1 - 0,0
18.04.2019 16:00:00 17,2 4,7 - 0,0
18.04.2019 15:00:00 18,2 4,8 - 0,0
18.04.2019 14:00:00 18,1 6,7 - 0,0
18.04.2019 13:00:00 18,2 7,5 - 0,0
18.04.2019 12:00:00 17,4 10,2 - 0,0
18.04.2019 11:00:00 16,0 10,3 - 0,0
18.04.2019 10:00:00 14,9 10,6 9,7 0,0
18.04.2019 09:00:00 12,3 10,9 - 0,0
18.04.2019 08:00:00 7,9 7,7 - 0,0
18.04.2019 07:00:00 6,0 5,8 - 0,0
18.04.2019 06:00:00 6,7 6,4 - 0,0
18.04.2019 05:00:00 6,9 6,7 - 0,0
18.04.2019 04:00:00 6,1 5,8 - 0,0
18.04.2019 03:00:00 4,1 3,8 - 0,0
18.04.2019 02:00:00 4,4 3,9 - 0,0
18.04.2019 01:00:00 5,9 5,3 - 0,0
18.04.2019 00:00:00 6,6 5,7 - 0,0
17.04.2019 23:00:00 8,1 7,2 - 0,0
17.04.2019 22:00:00 8,8 7,9 - 0,0
17.04.2019 21:00:00 9,0 7,9 - 0,0
17.04.2019 20:00:00 10,2 8,0 - 0,0
17.04.2019 19:00:00 11,7 8,6 - 0,0
17.04.2019 18:00:00 13,0 9,4 - 0,0

tt = temperature
td = dewpoint
tt -20cm = temperature -20cm
rr = precipitation

Next stations